Regional Weather Roundup
Issued by NWS

Home | Current Version | Previous Version | Text Only | Print | Product List | Glossary Off
Versions: 1 2 3 4 5 6 7 8 9 10 11 12 13 14 15 16 17 18 19 20 21 22 23 24 25 26 27 28 29 30 31 32 33 34 35 36 37 38 39 40 41 42 43 44 45 46 47 48 49 50

000
ASUS43 KDTX 110510
RWRMI
MICHIGAN HOURLY REGIONAL WEATHER ROUNDUP
NATIONAL WEATHER SERVICE DETROIT/PONTIAC MI
100 AM EDT FRI JUL 11 2014

NOTE: "FAIR" INDICATES FEW OR NO CLOUDS BELOW 12,000 FEET WITH NO
SIGNIFICANT WEATHER AND/OR OBSTRUCTION TO VISIBILITY.

MIZ047>049-052>055-059>063-066>070-074>076-081>083-110600-
SOUTHEAST LOWER MICHIGAN

CITY           SKY/WX    TMP DP  RH WIND       PRES   REMARKS
ADRIAN         CLEAR     61  57  87 CALM      30.20R
ALMA           CLEAR     56  54  92 CALM      30.21R
ANN ARBOR      CLEAR     62  56  80 E3        30.20R
BAD AXE        CLEAR     51  49  92 CALM      30.22R
CARO           CLEAR     55  54  98 CALM      30.21R
DETROIT CITY   CLEAR     65  57  75 NE3       30.21R
DETROIT        MOCLDY    65  57  75 NE3       30.21R
FLINT          CLEAR     61  55  81 E3        30.21R
GROSSE ILE     CLEAR     64  57  77 NE7       30.19R
HILLSDALE      CLEAR     57  57  99 CALM      30.21R
HOWELL         CLEAR     58  55  92 NE3       30.21R

CITY           SKY/WX    TMP DP  RH WIND       PRES   REMARKS
JACKSON        CLEAR     59  55  87 CALM      30.21R
LAMBERTVILLE   CLEAR     61  57  88 CALM      30.20R
LANSING        CLEAR     60  53  77 CALM      30.21R
LAPEER         FAIR      56  53  89 CALM      30.22S
MASON          CLEAR     57  56  95 CALM      30.21S
MONROE         CLEAR     61  57  88 CALM      30.19R
MT. CLEMENS    CLEAR     59  55  89 N3        30.20S
PONTIAC        PTCLDY    61  52  72 E7        30.21R
PORT HOPE        N/A     55  51  86 S3        30.19S
PORT HURON     CLEAR     54  52  94 CALM      30.21S
TRI CITIES     CLEAR     60  53  77 SE5       30.21R
TROY           PTCLDY    62  53  72 N5        30.23R
SAGINAW HB     CLEAR     59  55  88 SE5       30.20S
$$
MIZ043>046-050>051-056>058-064>065-071>073-077>080-110600-
SOUTHWEST LOWER MICHIGAN

CITY           SKY/WX    TMP DP  RH WIND       PRES   REMARKS
BATTLE CREEK   CLEAR     61  54  77 CALM      30.21R
BENTON HARBOR  CLEAR     55  54  96 CALM      30.19S
BIG RAPIDS     CLEAR     55  54  99 CALM      30.19S
COLDWATER      CLEAR     58  57  96 CALM      30.21R
FREMONT        FAIR      56  55  99 CALM      30.19S
HOLLAND        CLEAR     58  55  90 CALM      30.20R
GRAND RAPIDS   CLEAR     62  55  77 CALM      30.20R
IONIA          FAIR      56  54  93 CALM      30.20R
KALAMAZOO      CLEAR     58  54  86 CALM      30.20R
LUDINGTON      CLEAR     55  53  95 CALM      30.18S
MARSHALL       CLEAR     55  54  94 CALM      30.21R
MOUNT PLEASANT CLEAR     55  54  94 CALM      30.20R
MUSKEGON       CLEAR     58  53  84 CALM      30.19S
SOUTH HAVEN    CLEAR     55  55 100 CALM      30.20R
$$
MIZ016>042-110600-
NORTHERN LOWER MICHIGAN

CITY           SKY/WX    TMP DP  RH WIND       PRES   REMARKS
ALPENA         CLEAR     50  48  93 CALM      30.21R
BEAVER ISLAND  CLEAR     49  49 100 CALM      30.17F
BELLAIRE       CLEAR     50  49  94 CALM      30.18S
CADILLAC       CLEAR     49  49 100 CALM      30.19F FOG
CHARLEVOIX     CLEAR     58  49  73 SE5       30.20S
FRANKFORT      CLEAR     51  47  86 CALM      30.17F
GAYLORD        CLEAR     53  48  83 CALM      30.20R
GRAYLING       CLEAR     48  48 100 CALM      30.21S
HARBOR SPRINGS CLEAR     55  50  85 CALM      30.17S
HOUGHTON LAKE  CLEAR     51  50  96 N3        30.21R
MANISTEE       CLEAR     52  48  87 E5        30.19S
OSCODA         CLEAR     51  47  85 CALM      30.20R
PELLSTON       CLEAR     47  46  97 CALM      30.19R
ROGERS CITY    CLEAR     57  50  76 SE3       30.20S
TRAVERSE CITY  CLEAR     54  50  86 CALM      30.17S
$$
MIZ007>008-015-110600-
EASTERN UPPER MICHIGAN

CITY           SKY/WX    TMP DP  RH WIND       PRES   REMARKS
KINROSS        CLEAR     55  48  76 S7        30.17S
MACKINAC ISLAN CLEAR     59  48  67 SE8       30.17F
NEWBERRY       CLEAR     54  49  85 S12       30.15F
S. S. MARIE    CLEAR     53  46  77 CALM      30.17R
MUNISING         N/A     60  49  66 S8        30.11S
$$
MIZ004>006-011>014-085-110600-
CENTRAL UPPER MICHIGAN

CITY           SKY/WX    TMP DP  RH WIND       PRES   REMARKS
MANISTIQUE     CLEAR     53  50  91 S5        30.14S
ESCANABA       PTCLDY    61  52  72 S6        30.13S
MENOMINEE      CLEAR     61  50  67 S5        30.13R
SAWYER-GWINN   PTCLDY    58  51  77 S8        30.13S
$$
MIZ001>003-009>011-084-110600-
WESTERN UPPER MICHIGAN

CITY           SKY/WX    TMP DP  RH WIND       PRES   REMARKS
IRON MOUNTAIN  PTCLDY    58  53  84 SE5       30.12R
HOUGHTON       CLEAR     55  48  77 CALM      30.05S
COPPER HARBOR    N/A     61  53  75 SW10      30.03S
$$

ABBREVIATIONS USED IN REMARKS
   TC - TEMPERATURE IN CELSIUS
  WCI - WIND CHILL INDEX
   HX - HEAT INDEX
  VSB - VISIBILITY



USA.gov is the U.S. government's official web portal to all federal, state and local government web resources and services.